sat.trackr.live / text

‹ back to catalog

STARLINK-36944

NORAD 68029 · 2026-040Q

PAYLOAD ACTIVE UNKNOWN

§ Identity

Operator
Country
US
Launch date
2026-03-01
Launch site
AFWTR
Launch vehicle
Mass (kg)
RCS (m²)

Purposes: comms

External: N2YO · Heavens-Above · Gunter

§ Orbital elements

Epoch: 2026-05-24T20:09:29.674656Z

Period
93.91 min
Inclination
97.2845°
Eccentricity
0.0001788
Mean motion
15.33449628 rev/d
Perigee alt
464.3 km
Apogee alt
466.8 km
Semi-major
6,843.7 km
B*
6.3442e-4
RAAN
93.8680°
Arg perigee
95.4177°
Mean anomaly
264.7270°
Rev number
1,313

§ Raw data

STARLINK-369441 68029U 26040Q   26144.83992679  .00020465  00000+0  63442-3 0  99952 68029  97.2845  93.8680 0001788  95.4177 264.7270 15.33449628 13134

JSON: /api/v1/satellites/68029 · /tle

For live sub-satellite position, see the globe view (requires WebGL).

§ Visibility from observer

Set your observer location to see the next 7 days of passes ≥ 10°. The values pass through the URL so the page stays shareable.

No JS? Fill the form by hand. The geolocation button needs JavaScript.